Theta_e
298 298 297 297 297 297 298 298 298 298 299 300 302 303 303 308 308 308 302 305 312 311 312 311 309 307 305 304 303 305 310 306 305 304 297 295 295 293 293 293 293 293 293 292 291
297 297 298 298 298 298 298 298 298 299 300 302 302 302 302 307 308 305 302 307 307 311 311 308 304 302 301 302 302 302 302 300 299 298 298 296 295 294 294 293 293 293 292 292 291
298 297 298 298 298 298 298 298 298 300 301 302 304 302 303 306 307 305 305 307 305 306 307 303 301 300 299 301 300 300 299 298 297 296 295 294 293 294 295 294 293 293 292 291 291
299 297 298 298 298 298 298 298 299 301 301 303 308 306 305 306 306 301 306 306 305 303 303 301 301 299 299 299 299 300 298 298 299 297 295 294 293 292 292 291 291 290 290 290 290
298 298 298 298 298 298 298 298 298 301 302 302 304 306 303 297 296 299 306 306 305 305 303 302 301 300 299 299 298 298 297 296 295 295 295 294 293 293 293 292 291 291 291 291 290
297 298 298 298 298 298 298 298 298 299 301 303 304 303 301 298 298 299 307 307 305 305 302 302 301 300 299 298 297 297 298 299 297 296 296 295 294 295 294 293 293 293 292 291 291
298 297 298 298 298 299 299 299 299 299 300 300 300 303 297 296 297 299 304 307 306 305 302 302 302 301 300 301 299 299 300 299 301 298 298 300 296 295 294 294 295 294 293 292 291
298 298 298 298 298 299 299 299 299 299 300 301 300 302 295 297 298 299 299 298 303 305 305 304 303 301 301 300 303 305 303 303 300 303 303 301 296 296 295 295 295 295 294 293 292
297 298 298 298 298 299 298 299 298 299 299 299 298 298 296 298 297 296 297 298 299 298 298 299 303 302 303 306 303 298 303 301 299 298 300 298 294 296 295 295 295 295 293 293 292
296 297 298 298 298 298 299 299 298 299 299 298 297 297 295 294 295 295 296 297 296 295 295 293 292 294 293 299 304 302 298 298 297 295 293 294 295 296 295 294 294 291 291 291 290
296 297 297 298 298 299 299 301 299 296 295 292 293 293 293 295 295 295 295 295 294 291 292 291 293 292 291 295 296 296 297 297 296 295 295 292 293 292 290 293 292 289 288 289 288
296 297 297 298 298 298 299 297 296 296 293 294 294 293 294 294 294 294 295 293 292 292 291 292 292 290 295 295 296 296 296 297 296 293 293 292 292 290 289 288 289 288 287 287 288
296 296 297 298 298 299 298 297 298 297 294 296 294 292 293 293 292 292 293 292 291 291 290 291 293 292 295 294 297 297 297 298 297 295 291 292 295 289 289 288 288 287 287 287 287
295 296 297 298 298 297 296 296 297 301 297 299 296 293 294 294 293 293 293 292 291 291 290 290 291 293 294 295 295 298 297 297 297 299 295 296 294 297 289 288 288 288 286 287 287
295 296 296 298 297 299 296 299 299 300 296 297 296 294 294 294 293 293 293 291 291 291 291 291 291 293 295 295 295 299 297 299 300 298 294 296 290 293 291 290 290 288 287 287 287
294 295 296 297 298 298 297 299 301 299 295 297 295 294 295 293 292 292 294 291 289 291 289 289 289 290 292 292 295 296 297 297 296 296 291 291 291 292 294 294 292 290 289 288 287
294 294 295 297 299 297 298 300 301 301 295 297 294 294 294 294 293 293 293 293 293 294 294 291 290 289 289 294 293 296 298 290 292 292 294 293 290 294 292 292 292 292 290 288 287
294 295 295 295 298 298 301 296 295 298 294 294 293 293 294 293 293 293 293 292 291 293 290 292 294 290 289 291 293 294 295 291 286 293 292 289 292 295 291 291 292 291 290 289 288
293 294 295 296 297 298 295 291 298 298 297 293 293 294 294 292 292 293 291 291 290 290 294 292 295 289 289 289 290 290 294 290 281 271 286 291 291 293 290 294 293 292 290 289 288
293 294 295 296 296 300 293 298 296 296 293 293 297 294 293 292 292 292 291 292 294 290 292 294 293 289 289 289 288 290 290 290 284 288 287 292 292 296 294 293 294 293 292 290 288
294 290 293 296 299 293 293 292 296 296 294 294 296 294 294 293 291 290 294 293 291 289 291 292 292 290 289 288 289 288 289 289 288 289 290 289 294 293 295 292 293 294 293 292 289
293 294 294 296 292 284 289 291 296 294 293 293 294 296 294 292 291 291 294 294 289 289 293 292 290 287 290 288 287 288 289 290 291 288 287 289 291 293 293 292 291 292 293 291 290
295 295 293 295 291 287 289 295 295 293 293 293 294 294 294 293 294 292 291 290 288 290 291 292 289 288 294 291 287 287 288 289 283 283 285 290 295 290 289 291 290 289 288 290 291
296 298 294 293 291 293 291 293 293 292 293 292 293 293 293 294 292 294 293 290 288 288 294 293 288 294 299 297 290 288 288 289 288 285 289 292 295 292 291 289 290 289 288 287 289
297 300 295 296 295 296 293 293 291 293 291 291 292 293 295 294 293 292 292 289 288 290 292 289 289 290 288 291 287 289 290 289 290 292 293 296 293 294 294 291 291 290 289 288 288
297 297 294 295 292 294 296 295 295 294 292 292 292 292 293 298 297 299 294 290 292 288 289 287 286 286 288 284 287 290 290 289 290 291 291 292 292 293 291 289 289 290 288 289 289
291 292 294 299 296 296 296 295 296 294 294 294 293 294 293 293 292 290 292 291 292 289 290 287 286 290 294 282 283 290 289 291 292 289 292 292 295 294 291 289 290 290 289 289 289
Wind_Speed
14 14 16 16 18 18 19 18 19 18 13 8 3 4 2 17 39 52 30 25 23 20 3 6 18 10 24 7 10 6 4 4 4 3 5 7 3 3 3 9 12 7 8 6 9
13 14 15 14 15 17 16 17 21 19 13 14 10 10 7 10 17 40 39 32 24 16 7 6 7 24 6 7 6 7 5 5 4 3 4 6 4 3 3 8 11 8 14 14 14
11 13 14 14 14 16 16 15 21 20 13 16 20 7 10 6 13 15 38 27 26 5 16 21 21 11 11 9 13 7 5 5 9 11 9 5 4 3 6 9 3 5 8 14 15
8 10 12 13 13 15 14 16 16 21 14 13 21 17 4 2 6 22 32 26 14 29 23 19 10 8 7 11 12 8 16 10 3 7 5 3 3 5 9 4 4 6 7 10 14
6 7 10 12 12 14 15 14 12 18 21 12 13 7 11 9 7 21 24 30 28 33 25 20 23 8 10 7 14 12 10 15 15 15 14 11 11 6 9 5 4 7 10 10 10
6 4 6 8 10 13 14 15 10 8 13 23 17 19 12 19 9 18 22 26 28 41 34 25 14 15 15 10 11 10 15 7 8 10 6 7 6 1 3 2 2 3 4 4 4
6 2 2 4 7 10 13 13 7 6 4 7 5 19 20 7 11 13 19 26 28 29 16 14 9 8 8 12 8 12 8 7 2 1 3 2 7 5 2 5 3 3 2 1 1
5 4 2 3 4 9 15 13 5 3 3 3 5 12 6 4 6 14 11 14 13 22 29 28 26 12 5 12 5 1 0 3 4 1 3 2 2 2 4 4 6 4 3 2 2
5 5 2 3 4 10 15 9 10 7 5 2 3 6 3 3 6 15 12 6 7 13 13 8 7 6 2 4 4 8 3 5 3 5 1 3 3 5 6 4 6 5 2 1 3
6 6 3 2 7 13 13 4 11 2 2 3 7 4 5 3 6 10 6 9 7 6 6 10 6 5 5 3 2 3 5 4 4 6 7 5 2 5 6 5 7 6 3 2 3
8 7 4 5 9 13 9 1 4 5 16 4 2 3 3 7 5 11 8 3 6 9 6 7 10 6 7 5 5 8 6 5 2 3 4 4 1 7 6 5 7 6 6 5 5
10 9 6 7 9 11 5 6 3 5 6 5 2 3 3 4 3 14 9 5 7 4 4 7 6 5 2 6 9 7 7 3 1 3 3 3 6 8 6 5 7 7 7 7 5
9 7 7 6 4 7 12 8 6 3 5 2 2 3 3 4 2 7 6 3 6 7 7 6 0 2 4 6 6 5 5 2 2 2 3 2 6 6 6 6 7 8 9 7 9
9 8 7 7 0 3 4 4 2 2 5 1 1 3 3 2 4 3 3 3 5 4 4 5 4 2 3 4 2 3 2 3 4 3 1 4 4 5 6 9 9 11 10 10 9
9 9 6 8 2 2 3 2 2 1 4 1 1 1 3 4 2 5 5 6 4 4 2 0 3 4 4 1 1 3 2 3 2 3 3 1 3 6 3 8 14 15 13 12 11
6 7 7 3 2 2 3 2 2 7 6 1 1 0 2 4 3 4 3 8 4 5 6 3 1 2 1 1 1 2 3 4 3 3 3 4 4 5 6 9 5 14 15 15 13
3 4 4 2 0 3 2 2 5 4 3 4 3 1 1 1 2 3 2 1 3 4 2 1 0 0 1 3 2 3 3 3 5 4 4 2 2 11 7 8 8 13 15 15 13
5 3 2 1 1 5 2 6 4 3 6 2 2 2 3 4 1 2 2 2 3 3 3 5 5 5 2 2 4 2 4 4 5 2 4 4 6 6 6 7 7 7 10 10 13
5 4 3 3 5 6 6 3 9 8 7 10 3 3 3 2 3 2 6 5 7 10 7 4 2 1 1 1 2 3 3 3 7 1 3 3 7 10 6 7 7 10 8 12 15
3 2 4 6 8 5 4 7 6 4 8 4 10 7 7 5 5 6 6 4 4 5 1 5 2 1 0 1 2 2 5 3 3 0 5 5 6 7 5 10 9 10 13 12 11
3 2 4 9 10 5 4 8 7 6 5 8 10 6 6 8 8 6 5 2 5 5 3 4 3 1 2 8 8 3 3 3 3 4 5 2 6 8 10 10 15 16 14 12 13
4 1 4 13 3 0 5 8 6 5 1 6 2 6 10 10 9 6 11 8 9 11 9 7 5 4 7 0 1 2 5 6 4 6 4 2 9 5 9 7 9 12 13 10 11
3 2 3 4 4 3 4 5 4 6 6 8 8 7 3 9 1 9 6 1 8 10 10 9 3 2 7 1 2 5 6 4 3 3 7 6 8 2 4 8 9 10 10 11 12
3 1 2 1 1 5 5 5 5 2 4 5 3 4 4 5 3 5 6 3 5 5 5 9 4 8 12 9 6 6 7 13 7 4 5 14 23 10 9 11 10 11 10 10 13
2 4 1 4 6 7 6 6 5 5 5 6 3 7 9 6 2 5 3 3 1 7 4 5 9 6 5 3 5 6 7 17 18 23 13 23 23 25 23 15 18 13 8 9 12
3 2 1 2 1 10 11 7 12 4 8 6 7 12 14 14 14 13 8 6 7 3 7 3 4 3 5 1 5 9 13 14 25 15 22 22 31 16 6 5 8 14 12 13 15
2 1 1 4 4 3 6 8 8 6 6 8 11 9 7 14 1 4 1 0 6 14 13 9 6 4 15 2 6 13 22 25 20 14 21 19 40 7 15 18 19 17 14 15 17
Wind_Direction
59 51 49 56 55 51 50 57 43 32 36 38 12 227 168 31 34 32 27 342 338 344 288 354 52 61 54 44 33 351 67 58 45 93 147 171 102 13 26 62 58 54 52 12 3
57 50 49 55 51 48 59 54 37 28 41 30 344 225 192 49 26 26 1 6 356 16 68 85 36 50 57 23 25 45 64 42 2 48 100 77 80 96 89 59 49 34 31 30 36
57 51 49 53 51 51 55 46 32 36 56 37 31 86 167 313 41 349 6 11 22 21 86 75 75 66 50 41 8 31 80 108 67 81 83 77 66 36 112 62 38 42 12 21 32
55 55 50 54 51 47 40 30 48 46 53 56 62 59 133 7 62 345 15 27 33 63 87 72 37 61 73 58 37 96 54 60 74 40 61 57 70 75 45 73 47 35 30 33 36
48 57 48 52 50 41 34 34 48 58 58 57 57 72 70 58 54 2 24 46 62 75 61 78 65 73 84 91 66 61 77 74 86 80 72 85 72 70 59 66 47 31 31 31 25
38 70 59 55 47 35 30 28 42 68 71 68 80 85 74 73 356 21 38 48 56 65 53 64 99 98 71 51 52 118 100 100 71 82 91 73 40 29 9 164 63 31 15 8 26
29 52 50 42 32 24 17 8 31 34 54 68 74 60 55 86 29 44 52 56 59 72 65 60 110 84 147 100 102 128 95 115 80 104 159 290 32 20 284 306 323 358 318 19 52
14 10 345 343 353 3 0 357 334 71 93 102 60 68 85 29 39 45 55 63 60 69 84 80 71 82 70 123 128 56 222 53 8 223 93 242 286 286 245 315 331 323 293 335 351
5 359 330 309 321 343 353 20 75 110 74 101 20 91 81 28 32 12 27 30 60 81 68 73 64 74 114 111 79 27 50 17 340 5 16 12 203 225 232 245 289 298 253 256 264
1 357 349 327 323 333 344 142 57 128 32 51 54 56 19 334 340 356 30 44 41 339 14 28 49 59 21 53 113 123 97 39 22 343 30 47 103 186 226 233 260 277 240 238 234
356 353 340 324 326 330 350 233 8 354 40 81 345 88 358 334 40 14 2 29 35 50 37 10 61 31 330 1 94 110 95 101 315 309 45 13 320 243 247 233 260 258 247 225 232
3 354 345 339 337 342 31 77 110 137 77 29 63 65 28 356 21 355 17 70 50 50 347 40 52 320 15 44 68 75 99 66 53 30 65 323 278 251 241 244 224 234 239 229 219
6 358 350 342 349 46 78 92 102 125 89 22 42 26 318 24 104 322 13 107 93 51 29 100 162 352 82 41 58 32 96 155 135 49 82 17 283 239 238 225 225 226 226 221 213
358 357 351 337 196 102 72 92 67 95 69 282 331 2 350 55 38 337 31 102 41 139 92 79 343 77 71 75 3 65 7 76 103 56 190 74 277 262 226 245 230 232 218 223 214
343 348 357 13 73 67 130 72 63 30 13 282 331 345 42 73 14 11 23 36 100 98 122 22 28 30 49 9 331 138 82 52 76 85 65 5 70 267 97 251 239 232 228 224 218
333 334 352 348 3 103 135 82 50 43 263 276 322 196 73 30 29 315 40 49 139 87 43 104 84 76 76 356 347 135 84 56 55 65 21 227 131 266 194 214 228 222 222 219 214
307 317 338 353 13 151 146 63 36 131 336 265 240 156 96 104 46 39 42 73 169 92 200 342 216 313 136 104 8 63 57 351 357 5 223 164 55 247 241 226 214 208 217 214 209
294 317 308 233 159 155 113 49 124 232 215 99 76 65 198 149 202 80 66 272 227 96 100 156 301 174 163 159 181 157 145 155 215 232 265 353 239 248 218 222 214 217 213 205 207
281 293 276 215 179 164 74 85 204 199 154 149 96 169 264 191 138 131 201 220 210 179 163 131 256 6 25 84 128 196 182 135 99 76 36 227 278 290 229 256 219 220 212 213 209
203 282 225 187 163 129 79 228 228 190 129 151 182 157 196 197 161 181 189 200 193 183 78 195 77 256 137 62 23 183 152 72 2 278 288 279 282 241 249 228 221 223 219 218 210
195 61 197 166 145 61 176 225 241 216 159 163 203 157 199 182 186 203 214 239 164 140 97 137 106 284 41 203 179 151 205 65 128 149 192 260 256 217 222 204 207 221 222 212 208
167 337 166 159 84 284 172 194 211 194 141 245 193 191 184 173 184 220 213 221 167 152 166 188 143 173 198 112 46 249 219 167 139 232 229 177 264 251 230 226 207 224 223 217 210
199 234 171 175 184 242 285 248 223 156 194 188 224 209 175 173 212 202 201 25 163 162 165 182 234 26 332 16 8 216 199 169 96 65 200 157 259 272 250 246 236 239 232 222 216
126 230 325 123 236 183 171 231 226 210 216 174 192 116 119 195 240 234 228 178 193 196 153 143 160 181 231 216 132 184 198 189 154 144 197 221 252 260 244 231 235 235 235 227 218
152 229 241 199 236 207 183 163 165 208 233 177 230 210 177 195 194 226 222 160 208 217 167 160 209 188 240 205 197 211 193 185 206 219 203 254 231 241 236 222 224 222 229 217 224
153 188 157 288 298 196 208 208 217 234 156 236 229 208 211 219 206 230 162 185 195 133 163 217 233 125 271 275 247 249 226 198 221 230 247 266 271 245 260 221 217 220 213 217 225
33 298 314 178 169 158 210 209 226 166 230 235 210 230 213 235 16 333 230 196 184 162 186 161 147 123 259 58 328 280 212 212 221 207 218 231 247 228 239 227 226 227 216 220 225